EW1146 Weather Reports


time (UTC)temp
F
wind
direction
speed
knots
gust
knots
rain 1hr
in
rain 24hr
in
rain mn
in
humidity
%
barometer
mb
20260906220327 90 58 2.6 6.1 0.00 0.00 0.00 33 1015.2
20260906214847 91 13 2.6 13.0 0.00 0.00 0.00 34 1015.4
20260906213335 90 229 4.3 7.0 0.00 0.00 0.00 33 1015.7
20260906211856 90 30 4.3 7.8 0.00 0.00 0.00 33 1016.0
20260906210344 90 103 3.5 8.7 0.00 0.00 0.00 31 1016.4
20260906204827 90 127 2.6 8.7 0.00 0.00 0.00 31 1016.5
20260906203407 90 130 0.0 4.3 0.00 0.00 0.00 32 1016.6
20260906201830 89 61 4.3 11.3 0.00 0.00 0.00 35 1016.8
20260906200338 87 58 5.2 7.8 0.00 0.00 0.00 37 1016.9
20260906194835 87 113 1.7 8.7 0.00 0.00 0.00 36 1017.0
20260906193351 86 340 0.9 6.1 0.00 0.00 0.00 37 1017.1
20260906191840 86 326 1.7 6.1 0.00 0.00 0.00 40 1017.3
20260906190412 85 57 2.6 7.8 0.00 0.00 0.00 37 1017.6
20260906184828 84 60 0.9 7.0 0.00 0.00 0.00 42 1018.1
20260906183342 83 28 1.7 6.1 0.00 0.00 0.00 46 1018.4
20260906181847 82 74 3.5 6.1 0.00 0.00 0.00 51 1018.7
20260906180332 80 93 1.7 7.8 0.00 0.00 0.00 54 1018.8
20260906174852 79 80 1.7 6.1 0.00 0.00 0.00 55 1019.3
20260906173326 78 46 2.6 4.3 0.00 0.00 0.00 58 1019.7
20260906171835 77 22 2.6 4.3 0.00 0.00 0.00 60 1019.8
20260906170350 76 108 1.7 3.5 0.00 0.00 0.00 62 1020.2
20260906164830 75 75 1.7 5.2 0.00 0.00 0.00 64 1020.4
20260906163354 73 280 0.9 3.5 0.00 0.00 0.00 65 1020.3
20260906161825 72 360 1.7 4.3 0.00 0.00 0.00 66 1020.4
20260906160329 72 317 1.7 5.2 0.00 0.00 0.00 68 1020.2
20260906154849 70 13 2.6 5.2 0.00 0.00 0.00 71 1020.3
20260906153326 69 292 2.6 5.2 0.00 0.00 0.00 72 1020.5
20260906151903 68 57 1.7 5.2 0.00 0.00 0.00 76 1020.4
20260906150341 67 355 2.6 5.2 0.00 0.00 0.00 76 1020.7
20260906144842 67 5 2.6 6.1 0.00 0.00 0.00 79 1020.4
20260906143344 66 285 2.6 4.3 0.00 0.00 0.00 79 1020.6
20260906141839 65 24 3.5 4.3 0.00 0.00 0.00 79 1020.6
20260906140329 64 331 4.3 6.1 0.00 0.00 0.00 80 1020.4
20260906134854 62 332 2.6 4.3 0.00 0.00 0.00 84 1020.4
20260906133329 61 298 0.0 0.0 0.00 0.00 0.00 81 1020.3
20260906131839 61 236 0.0 1.7 0.00 0.00 0.00 79 1020.3
20260906130404 60 225 0.0 1.7 0.00 0.00 0.00 81 1020.1
20260906124829 60 212 0.9 2.6 0.00 0.00 0.00 83 1020.0
20260906123329 59 253 0.0 0.0 0.00 0.00 0.00 84 1019.9
20260906121831 59 283 0.0 0.0 0.00 0.00 0.00 84 1019.9
20260906120354 59 283 0.0 0.0 0.00 0.00 0.00 83 1019.9
20260906114830 59 283 0.0 0.0 0.00 0.00 0.00 82 1019.9
20260906113341 60 283 0.0 0.0 0.00 0.00 0.00 81 1019.9
20260906111848 60 283 0.0 0.0 0.00 0.00 0.00 80 1019.9
20260906110347 61 283 0.0 0.0 0.00 0.00 0.00 79 1019.6
20260906104821 61 331 0.0 0.0 0.00 0.00 0.00 80 1019.7
20260906103403 61 327 0.0 0.0 0.00 0.00 0.00 77 1019.6
20260906101836 62 355 0.0 0.0 0.00 0.00 0.00 78 1019.7
20260906100324 62 355 0.0 0.0 0.00 0.00 0.00 80 1019.5
20260906094836 63 355 1.7 1.7 0.00 0.00 0.00 80 1019.5
20260906093329 63 360 0.9 1.7 0.00 0.00 0.00 78 1019.6
20260906091825 63 9 0.0 0.0 0.00 0.00 0.00 74 1019.5
20260906090351 64 344 0.0 1.7 0.00 0.00 0.00 73 1019.1
20260906084906 65 9 0.0 2.6 0.00 0.00 0.00 69 1019.0
20260906083332 65 360 1.7 3.5 0.00 0.00 0.00 65 1018.8
20260906081834 66 57 0.9 4.3 0.00 0.00 0.00 62 1018.9
20260906080329 65 26 2.6 5.2 0.00 0.00 0.00 61 1018.8
20260906074839 65 342 0.0 0.0 0.00 0.00 0.00 64 1018.7
20260906073418 65 337 0.0 1.7 0.00 0.00 0.00 64 1018.8
20260906071830 65 9 0.0 0.0 0.00 0.00 0.00 64 1018.9
20260906070402 66 16 0.0 0.0 0.00 0.00 0.00 63 1018.8
20260906064836 67 240 0.0 0.9 0.00 0.00 0.00 56 1018.9
20260906063325 69 279 1.7 3.5 0.00 0.00 0.00 58 1019.0
20260906061850 70 65 0.0 0.0 0.00 0.00 0.00 55 1019.0
20260906060335 71 65 0.0 2.6 0.00 0.00 0.00 54 1018.5
20260906054844 72 32 1.7 2.6 0.00 0.00 0.00 50 1018.7
20260906053343 73 183 1.7 4.3 0.00 0.00 0.00 50 1019.2
20260906051830 74 194 1.7 3.5 0.00 0.00 0.00 47 1019.4
20260906050354 72 173 2.6 5.2 0.00 0.00 0.00 42 1019.7
20260906044824 71 242 0.0 0.0 0.00 0.00 0.00 44 1019.2
20260906043327 71 216 4.3 5.2 0.00 0.00 0.00 44 1018.7
20260906041832 71 221 3.5 4.3 0.00 0.00 0.00 43 1018.6
20260906040326 70 80 0.0 1.7 0.00 0.00 0.00 47 1018.3
20260906034850 71 80 0.9 1.7 0.00 0.00 0.00 46 1017.9
20260906033350 72 75 0.0 2.6 0.00 0.00 0.00 44 1017.9
20260906031852 73 207 0.9 4.3 0.00 0.00 0.00 41 1017.9
20260906030347 73 21 0.0 3.5 0.00 0.00 0.00 47 1017.5
20260906024829 74 58 0.9 1.7 0.00 0.00 0.00 41 1017.1
20260906023335 75 62 0.9 1.7 0.00 0.00 0.00 39 1017.0
20260906021903 77 55 0.0 1.7 0.00 0.00 0.00 37 1017.0
20260906020329 79 49 0.9 1.7 0.00 0.00 0.00 34 1017.0
20260906014843 81 331 0.0 3.5 0.00 0.00 0.00 31 1016.8
20260906013330 82 288 2.6 7.8 0.00 0.00 0.00 30 1016.6
20260906011841 83 341 4.3 7.8 0.00 0.00 0.00 29 1016.6
20260906010328 84 302 0.9 7.8 0.00 0.00 0.00 28 1016.5
20260906004828 85 311 4.3 10.4 0.00 0.00 0.00 27 1016.6
20260906003353 86 312 4.3 7.8 0.00 0.00 0.00 26 1016.6
20260906001828 87 278 5.2 7.8 0.00 0.00 0.00 25 1016.5
20260906000357 88 326 2.6 4.3 0.00 0.00 0.00 24 1016.4
20260905234845 89 331 3.5 7.0 0.00 0.00 0.00 23 1016.4
20260905233329 90 335 2.6 6.1 0.00 0.00 0.00 22 1016.3
20260905231849 92 280 3.5 5.2 0.00 0.00 0.00 21 1016.2
20260905230343 90 360 0.9 5.2 0.00 0.00 0.00 21 1016.1
20260905224852 92 13 1.7 4.3 0.00 0.00 0.00 20 1016.0
20260905223331 93 48 1.7 8.7 0.00 0.00 0.00 20 1016.0
20260905221827 93 88 0.9 4.3 0.00 0.00 0.00 21 1016.1